Weather in Pivan'

Russia / Khabarovsk Krai     50°28′47″N   137°05′13″E
temp.,
°C
wind,
m/s
gust,
m/s
humid.,
%
clouds,
%
prec.,
mm/h
press.,
hPa
HPBL,
m
27 february, sat
sat2701:00−19s3499100 0.1 1031100
04:00−20s3899100 0.1 1032221
07:00−20s51097100 0.1 1032344
10:00−19s61195100 0.1 1031421
13:00−16s71290100 0.0 1029503
16:00−14s81387100 0.1 1025559
19:00−13s71489100 0.1 1024503
22:00−13s71386100 0.2 1021447
28 february, sun
sun2801:00−13s61487100 0.1 1017512
04:00−12ssw61488100 0.1 1013559
07:00−12ssw61287100 0.0 1013438
10:00−12ssw3487100 0.0 1012263
13:00−9s2382100 0.0 1012403
16:00−7s1278100 0.0 1012348
19:00−10nne2674100 0.0 1016162
22:00−15nne2276100 0.1 101933
1 march, mon
mon101:00−17e1283100 0.0 102140
04:00−20se028997 0.0 102339
07:00−21sse129656 0.0 102420
10:00−19s349378 0.1 1026394
13:00−17s4587100 0.0 1025519
16:00−15s348296 0.1 1025490
19:00−18sse119476 0.0 102622
22:00−20ese119874 0.1 102835
2 march, tue
tue201:00−20e119696 0.1 102837
04:00−24ese119782 0.1 102920
07:00−25se119991 0.0 103120
10:00−22s239296 0.0 1030301
13:00−19s348286 0.0 1029462
16:00−18s347776 0.0 1028476
19:00−22s22920 0.0 103020
22:00−24s12940 0.0 103120
3 march, wed
wed301:00−24sse22940 0.0 103020
04:00−26sse22981 0.0 102926
07:00−27sse239892 0.0 102855
10:00−24s479596 0.0 1027326
13:00−19s7118998 0.0 1023543
16:00−16s8148399 0.0 1020550
19:00−17s71583100 0.0 1018472
22:00−17s51384100 0.0 1017412